• In Hungary
  • List of Countries
  • For 7 days
  • Water Temperature
  • Satellite Maps
  • Weather Map
  • News
  • Weather Widgets
  • user-avatar
    Login

    Hourly Weather Siodlonie

    Today, 17 July, Tuesday

    Time Temperature Precipitation Wind Pressure Humidity
    00:00 +19°C° 0.2 mm 2 mps 755 mmHg 91%
    01:00 +19°C° 0.2 mm 2 mps 755 mmHg 92%
    02:00 +19°C° 0.2 mm 2 mps 754 mmHg 93%
    03:00 +19°C° 0.2 mm 2 mps 754 mmHg 93%
    04:00 +19°C° 0.2 mm 3 mps 754 mmHg 94%
    05:00 +19°C° 0.2 mm 3 mps 754 mmHg 93%
    06:00 +20°C° 0.2 mm 3 mps 754 mmHg 92%
    07:00 +20°C° 0.2 mm 3 mps 754 mmHg 92%
    08:00 +21°C° 0.3 mm 3 mps 754 mmHg 89%
    09:00 +22°C° 0.3 mm 3 mps 754 mmHg 86%
    10:00 +23°C° 0.3 mm 4 mps 754 mmHg 83%
    11:00 +23°C° 0.5 mm 4 mps 754 mmHg 84%
    12:00 +22°C° 0.5 mm 4 mps 754 mmHg 84%
    13:00 +22°C° 0.5 mm 4 mps 754 mmHg 85%
    14:00 +22°C° 0.4 mm 4 mps 754 mmHg 87%
    15:00 +21°C° 0.4 mm 4 mps 754 mmHg 89%
    16:00 +21°C° 0.4 mm 4 mps 754 mmHg 91%
    17:00 +20°C° 0.5 mm 4 mps 754 mmHg 92%
    18:00 +20°C° 0.5 mm 4 mps 754 mmHg 93%
    19:00 +20°C° 0.5 mm 4 mps 753 mmHg 95%
    20:00 +19°C° 1 mm 4 mps 754 mmHg 95%
    21:00 +19°C° 1 mm 4 mps 754 mmHg 96%
    22:00 +19°C° 1 mm 4 mps 754 mmHg 96%
    23:00 +19°C° 1.1 mm 4 mps 754 mmHg 96%

    Tomorrow, 18 July, Wednesday

    Time Temperature Precipitation Wind Pressure Humidity
    00:00 +19°C° 1.1 mm 4 mps 754 mmHg 96%
    01:00 +19°C° 1.1 mm 5 mps 754 mmHg 96%
    02:00 +19°C° 0.9 mm 5 mps 753 mmHg 96%
    03:00 +19°C° 0.9 mm 5 mps 753 mmHg 97%
    04:00 +19°C° 0.9 mm 5 mps 753 mmHg 97%
    05:00 +19°C° 1.1 mm 4 mps 754 mmHg 96%
    06:00 +19°C° 1.1 mm 4 mps 754 mmHg 96%
    07:00 +19°C° 1.1 mm 4 mps 754 mmHg 96%
    08:00 +20°C° 0.7 mm 4 mps 754 mmHg 94%
    09:00 +21°C° 0.7 mm 4 mps 754 mmHg 93%
    10:00 +21°C° 0.7 mm 4 mps 754 mmHg 91%
    11:00 +22°C° 0.5 mm 4 mps 754 mmHg 88%
    12:00 +23°C° 0.5 mm 5 mps 754 mmHg 85%
    13:00 +25°C° 0.5 mm 5 mps 755 mmHg 81%
    14:00 +25°C° 0.3 mm 5 mps 755 mmHg 81%
    15:00 +25°C° 0.3 mm 5 mps 755 mmHg 80%
    16:00 +25°C° 0.3 mm 4 mps 755 mmHg 80%
    17:00 +23°C° 0.1 mm 4 mps 755 mmHg 82%
    18:00 +22°C° 0.1 mm 4 mps 755 mmHg 83%
    19:00 +21°C° 0.1 mm 4 mps 755 mmHg 85%
    20:00 +20°C° 0 mm 4 mps 755 mmHg 87%
    21:00 +20°C° 0 mm 4 mps 755 mmHg 89%
    22:00 +19°C° 0 mm 3 mps 756 mmHg 91%
    23:00 +19°C° 0 mm 3 mps 756 mmHg 91%

    Day after tomorrow, 19 July, Thursday

    Time Temperature Precipitation Wind Pressure Humidity
    00:00 +19°C° 0 mm 4 mps 755 mmHg 90%
    01:00 +19°C° 0 mm 4 mps 755 mmHg 90%
    02:00 +19°C° 0 mm 3 mps 755 mmHg 89%
    03:00 +19°C° 0 mm 3 mps 755 mmHg 89%
    04:00 +19°C° 0 mm 3 mps 755 mmHg 88%
    05:00 +20°C° 0 mm 3 mps 756 mmHg 86%
    06:00 +20°C° 0 mm 3 mps 756 mmHg 84%
    07:00 +21°C° 0 mm 3 mps 756 mmHg 82%
    08:00 +22°C° 0 mm 3 mps 756 mmHg 78%
    09:00 +23°C° 0 mm 4 mps 756 mmHg 75%
    10:00 +23°C° 0 mm 4 mps 756 mmHg 71%
    11:00 +25°C° 0 mm 4 mps 756 mmHg 69%
    12:00 +25°C° 0 mm 5 mps 756 mmHg 66%
    13:00 +26°C° 0 mm 5 mps 756 mmHg 63%
    14:00 +26°C° 0 mm 5 mps 756 mmHg 63%
    15:00 +25°C° 0 mm 5 mps 756 mmHg 63%
    16:00 +25°C° 0 mm 4 mps 757 mmHg 63%
    17:00 +23°C° 0 mm 4 mps 757 mmHg 68%
    18:00 +22°C° 0 mm 4 mps 756 mmHg 73%
    19:00 +21°C° 0 mm 3 mps 756 mmHg 78%
    20:00 +20°C° 0 mm 3 mps 756 mmHg 81%
    21:00 +20°C° 0 mm 3 mps 757 mmHg 84%
    22:00 +19°C° 0 mm 2 mps 757 mmHg 88%
    23:00 +19°C° 0 mm 2 mps 757 mmHg 88%

    20 July, Friday

    Time Temperature Precipitation Wind Pressure Humidity
    00:00 +18°C° 0 mm 3 mps 756 mmHg 88%
    01:00 +18°C° 0 mm 3 mps 756 mmHg 89%
    02:00 +18°C° 0 mm 3 mps 756 mmHg 89%
    03:00 +18°C° 0 mm 3 mps 756 mmHg 90%
    04:00 +17°C° 0 mm 3 mps 756 mmHg 90%
    05:00 +19°C° 0 mm 3 mps 756 mmHg 85%
    06:00 +20°C° 0 mm 3 mps 756 mmHg 80%
    07:00 +22°C° 0 mm 3 mps 756 mmHg 75%
    08:00 +23°C° 0 mm 4 mps 756 mmHg 70%
    09:00 +25°C° 0 mm 4 mps 756 mmHg 65%
    10:00 +26°C° 0 mm 4 mps 756 mmHg 60%
    11:00 +26°C° 0 mm 5 mps 756 mmHg 60%
    12:00 +26°C° 0 mm 5 mps 756 mmHg 59%
    13:00 +27°C° 0 mm 5 mps 756 mmHg 58%
    14:00 +26°C° 0 mm 5 mps 756 mmHg 60%
    15:00 +26°C° 0 mm 5 mps 756 mmHg 61%
    16:00 +25°C° 0 mm 5 mps 756 mmHg 62%
    17:00 +23°C° 0 mm 5 mps 756 mmHg 66%
    18:00 +22°C° 0 mm 4 mps 756 mmHg 70%
    19:00 +21°C° 0 mm 4 mps 756 mmHg 74%
    20:00 +20°C° 0 mm 4 mps 756 mmHg 77%
    21:00 +18°C° 0 mm 4 mps 756 mmHg 81%
    22:00 +17°C° 0 mm 4 mps 756 mmHg 84%
    23:00 +17°C° 0 mm 4 mps 756 mmHg 85%

    21 July, Saturday

    Time Temperature Precipitation Wind Pressure Humidity
    00:00 +17°C° 0 mm 4 mps 755 mmHg 85%
    01:00 +15°C° 0 mm 4 mps 755 mmHg 86%
    02:00 +15°C° 0 mm 4 mps 755 mmHg 88%
    03:00 +15°C° 0 mm 4 mps 755 mmHg 90%
    04:00 +15°C° 0 mm 4 mps 755 mmHg 92%
    05:00 +17°C° 0 mm 4 mps 755 mmHg 86%
    06:00 +19°C° 0 mm 4 mps 755 mmHg 81%
    07:00 +20°C° 0 mm 4 mps 755 mmHg 75%
    08:00 +21°C° 0 mm 4 mps 755 mmHg 70%
    09:00 +22°C° 0 mm 4 mps 756 mmHg 65%
    10:00 +23°C° 0 mm 4 mps 756 mmHg 60%
    11:00 +25°C° 0 mm 4 mps 756 mmHg 57%
    12:00 +25°C° 0 mm 4 mps 756 mmHg 54%
    13:00 +25°C° 0 mm 4 mps 755 mmHg 51%
    14:00 +25°C° 0 mm 4 mps 755 mmHg 52%
    15:00 +25°C° 0 mm 4 mps 755 mmHg 52%
    16:00 +23°C° 0 mm 4 mps 755 mmHg 52%
    17:00 +22°C° 0 mm 4 mps 755 mmHg 58%
    18:00 +21°C° 0 mm 4 mps 755 mmHg 64%
    19:00 +20°C° 0 mm 4 mps 755 mmHg 70%
    20:00 +18°C° 0 mm 3 mps 755 mmHg 75%
    21:00 +17°C° 0 mm 3 mps 755 mmHg 80%
    22:00 +16°C° 0 mm 3 mps 755 mmHg 85%
    23:00 +16°C° 0 mm 3 mps 755 mmHg 86%

    22 July, Sunday

    Time Temperature Precipitation Wind Pressure Humidity
    00:00 +14°C° 0 mm 3 mps 755 mmHg 86%
    01:00 +14°C° 0 mm 3 mps 755 mmHg 87%
    02:00 +14°C° 0 mm 3 mps 755 mmHg 87%
    03:00 +14°C° 0 mm 3 mps 755 mmHg 87%
    04:00 +14°C° 0 mm 3 mps 755 mmHg 87%
    05:00 +17°C° 0 mm 3 mps 755 mmHg 83%
    06:00 +18°C° 0 mm 3 mps 755 mmHg 78%
    07:00 +20°C° 0 mm 3 mps 755 mmHg 74%
    08:00 +21°C° 0 mm 3 mps 755 mmHg 68%
    09:00 +22°C° 0 mm 3 mps 755 mmHg 62%
    10:00 +24°C° 0 mm 3 mps 755 mmHg 56%
    11:00 +24°C° 0.1 mm 3 mps 755 mmHg 57%
    12:00 +24°C° 0.1 mm 3 mps 755 mmHg 59%
    13:00 +24°C° 0.1 mm 3 mps 755 mmHg 61%
    14:00 +23°C° 0.3 mm 4 mps 755 mmHg 64%
    15:00 +22°C° 0.3 mm 4 mps 755 mmHg 68%
    16:00 +22°C° 0.3 mm 4 mps 755 mmHg 71%
    17:00 +21°C° 0.2 mm 4 mps 755 mmHg 75%
    18:00 +20°C° 0.2 mm 4 mps 755 mmHg 80%
    19:00 +19°C° 0.2 mm 4 mps 755 mmHg 84%
    20:00 +18°C° 0 mm 4 mps 755 mmHg 87%
    21:00 +17°C° 0 mm 4 mps 755 mmHg 89%
    22:00 +16°C° 0 mm 3 mps 755 mmHg 92%
    23:00 +15°C° 0.1 mm 4 mps 755 mmHg 93%
    Show more